Location: *
(24.5833°N, 69.9500°W)
Time: 10:34:17
(UTC+00:00)

Daily predictions for brighter satellites

Satellite Brightness Start Highest point End
(mag) Time Altitude Azimuth Time Altitude Azimuth Time Altitude Azimuth
CZ-3 Stage 3 3.3 23:03:18 10° SSW 23:08:08 17° S 23:10:37 10° SE
Cosmos 2360 Rocket 3.4 23:04:25 10° NNE 23:08:44 22° ENE 23:13:02 10° ESE
Cosmos 1269 Rocket 4.2 23:05:29 10° N 23:10:39 53° ENE 23:15:48 10° SSE
DMSP B5D1-3 4.5 23:07:56 10° NNE 23:13:02 81° ESE 23:18:07 10° S
Ariane Rocket 3.9 23:08:57 10° SE 23:13:11 27° ENE 23:17:24 10° NNE
Meteor 2-16 Rocket 4.4 23:12:42 10° N 23:18:49 87° E 23:24:53 10° S
GPS 2-14 Rocket1 4.0 23:16:22 10° SW 23:19:29 24° SSE 23:22:12 12° ESE
Orbus 7S? 3.5 23:21:31 10° SSW 23:24:22 49° ESE 23:29:34 10° NE
Timation 2 Rocket 4.1 23:17:46 10° SSW 23:24:32 87° ESE 23:31:06 10° NNE
COSMOS 2455 4.5 23:21:18 10° NNE 23:24:41 15° ENE 23:27:05 12° E
YAOGAN 1 2.5 23:20:35 10° SSE 23:24:54 89° E 23:29:14 10° NNW
SL-16 R/B 2.2 23:19:45 10° NNW 23:25:27 90° WSW 23:31:06 10° SSE
CZ-2C R/B 4.3 23:21:48 10° NE 23:25:46 31° E 23:29:40 10° SSE
Cosmos 1536 Rocket 4.4 23:26:18 10° NNE 23:30:00 27° E 23:33:42 10° SE
Nadezhda 1 Rocket 4.3 23:25:07 10° SSE 23:30:47 42° E 23:36:25 10° NNE
Cosmos 1441 Rocket 4.0 23:27:32 10° SSE 23:30:56 30° E 23:34:19 10° NNE
Cosmos 1939 Rocket 3.1 23:29:49 10° SSE 23:33:29 41° ENE 23:37:08 10° N
Cosmos 1544 3.6 23:33:22 10° SSE 23:36:37 34° E 23:39:53 10° NNE
Cosmos 1025 Rocket 3.8 23:36:14 10° NNE 23:39:58 29° E 23:42:11 19° SE
Cosmos 405 2.9 23:37:16 10° N 23:40:43 60° E 23:44:07 10° SSE
Cosmos 2151 Rocket 3.9 23:37:03 10° SSW 23:41:26 68° W 23:45:49 10° N
Cosmos 2333 Rocket 4.0 23:41:10 10° NNE 23:43:50 13° ENE 23:43:54 13° ENE
MONITOR-E 4.4 23:48:16 39° ENE 23:48:16 39° ENE 23:50:49 10° N
GPS 2-17 Rocket1 4.3 23:45:17 10° SW 23:48:48 24° SSE 23:49:58 21° SE
Meteor 2-15 Rocket 4.4 23:42:53 10° S 23:48:56 68° E 23:55:01 10° NNE
Fermi 3.6 23:46:06 10° W 23:50:10 87° N 23:51:55 33° E
Meteor 2-15 4.4 23:44:49 10° S 23:50:56 89° W 23:57:06 10° N
SAR-Lupe-2 3.7 23:48:33 10° N 23:52:06 73° WNW 23:55:38 10° SSW
Genesis I 3.8 23:48:55 10° N 23:52:30 35° ENE 23:53:02 34° E
USA 186 4.2 23:59:08 13° NNE 23:59:08 13° NNE 23:59:39 10° NNE
